Simultaneous Nadir Overpasses (SNOs) Predictions

Prediction of SNOs between NPP and GCOM-C Satellite Orbit:

Table of predicted SNOs for the next 14.0 days since TLE Epoch: 9/28/2024
Index Date (NPP) Time (NPP) Lat,Lon (NPP) SZA (NPP ) Date (GCOM-C) Time (GCOM-C) Lat,Lon (GCOM-C) SZA (GCOM-C ) Distance(km) Time Diff (sec)
1 10/08/2024 14:33:45 69.97, -42.02 76.09 10/08/2024 14:34:53 69.92, -39.94 76.05 79.29 68
2 10/08/2024 15:24:20 -69.50, 126.00 104.38 10/08/2024 15:25:32 -69.44, 126.74 104.44 29.50 72
3 10/08/2024 16:15:00 69.19, -66.25 75.33 10/08/2024 16:16:04 69.16, -66.26 75.30 3.40 64
4 10/08/2024 17:05:43 -69.14, 101.13 104.71 10/08/2024 17:06:34 -69.16, 101.12 104.69 2.49 51
5 10/08/2024 17:56:29 69.15, -91.57 75.32 10/08/2024 17:57:01 69.15, -91.51 75.32 2.60 32
6 10/08/2024 18:47:12 -69.10, 75.81 104.72 10/08/2024 18:47:32 -69.10, 75.80 104.73 0.77 20
7 10/08/2024 19:37:57 69.06,-116.82 75.25 10/08/2024 19:37:59 69.09,-116.83 75.28 2.75 2
8 10/08/2024 20:28:41 -69.06, 50.49 104.73 10/08/2024 20:28:29 -69.09, 50.55 104.71 3.42 12
9 10/08/2024 21:19:26 69.02,-142.14 75.24 10/08/2024 21:18:57 69.02,-142.16 75.24 0.58 29
10 10/08/2024 22:10:10 -69.03, 25.17 104.75 10/08/2024 22:09:27 -69.02, 25.22 104.75 2.17 43
11 10/08/2024 23:00:55 68.99,-167.46 75.23 10/08/2024 22:59:55 68.96,-167.48 75.20 3.20 60
12 10/08/2024 23:51:38 -68.94, -0.08 104.81 10/08/2024 23:50:25 -68.96, -0.10 104.79 2.84 73
13 10/09/2024 00:42:13 68.36, 168.00 74.63 10/09/2024 00:41:03 68.35, 166.50 74.62 61.66 70



Historial Predications of SNOs between NPP and GCOM-C
